Regional Weather Roundup
Issued by NWS

Home | Current Version | Previous Version | Text Only | Print | Product List | Glossary On
Versions: 1 2 3 4 5 6 7 8 9 10 11 12 13 14 15 16 17 18 19 20 21 22 23 24 25 26 27 28 29 30 31 32 33 34 35 36 37 38 39 40 41 42 43 44 45 46 47 48 49 50
000
ASUS46 KSEW 230810
RWRWA

WASHINGTON REGIONAL WEATHER ROUNDUP
NATIONAL WEATHER SERVICE SEATTLE WA
100 AM PDT SUN APR 23 2017

NOTE:"FAIR" INDICATES FEW OR NO CLOUDS BELOW 12,000 FEET WITH NO
SIGNIFICANT WEATHER AND/OR OBSTRUCTIONS TO VISIBILITY.

WAZ507-509-555>559-230900-
SEATTLE, TACOMA, EVERETT, AND VICINITY

CITY           SKY/WX    TMP DP  RH WIND       PRES   REMARKS
EVERETT        CLOUDY    49  45  86 SE9       29.95F
BOEING FIELD   PTCLDY    48  46  93 SE6       29.97S
RENTON         MOCLDY    48  47  96 CALM      29.97S
SEATAC AIRPORT MOCLDY    49  45  86 S8        29.96F
JBLM-MCCHORD   CLOUDY    46  46 100 S8        29.97S
PUYALLUP         N/A     50  46  87 SE3       29.98R
BREMERTON      NOT AVBL
JBLM-FT LEWIS  PTCLDY    48  44  85 VRB2      30.00S
TACOMA NARROWS PTCLDY    48  45  89 S6        29.97F
$$

WAZ001-503-506-510-514-515-230900-
NORTH INTERIOR

CITY           SKY/WX    TMP DP  RH WIND       PRES   REMARKS
BELLINGHAM     CLOUDY    53  45  74 S15G23    29.92R
FRIDAY HARBOR  CLOUDY    48  47  96 CALM      29.93S
EASTSOUND      CLOUDY    50  46  87 S10       29.91S
PORT ANGELES   CLOUDY    46  44  93 W6        29.93S
EDIZ HOOK      PTSUNNY   48  45  88 W6        29.93R
PORT TOWNSEND  NOT AVBL
NAS WHIDBEY    CLOUDY    52  43  71 SE14      29.96S
ARLINGTON      CLOUDY    52  39  62 SE14      29.97S
BURLINGTON     CLOUDY    52  46  82 SE7G15    29.94S
$$

WAZ020-022-039-040-504-511-512-230900-
SOUTHWEST INTERIOR

CITY           SKY/WX    TMP DP  RH WIND       PRES   REMARKS
SHELTON        MOCLDY    47  45  93 SW5       29.95S
OLYMPIA        CLEAR     42  42 100 CALM      29.97S
CHEHALIS       FAIR      45  45 100 CALM      29.97S
KELSO          PTCLDY    46  45  96 CALM      29.99S
VANCOUVER      CLOUDY    51  47  86 CALM      29.98S
SCAPPOOSE, OR  PTCLDY    43  42  97 W3        29.98S
PORTLAND, OR   CLOUDY    51  44  77 S6        29.99S
$$

WAZ021-516-517-230900-
WASHINGTON COAST

CITY           SKY/WX    TMP DP  RH WIND       PRES   REMARKS
FORKS          CLOUDY    47  46  97 CALM      29.93R
HOQUIAM        CLOUDY    49  48  97 SW8       29.96S
ASTORIA, OR    MOCLDY    48  44  86 CALM      29.96S
$$

WAZ019-023-024-040-567>569-230900-
CASCADE MOUNTAINS AND COLUMBIA GORGE

CITY           SKY/WX    TMP DP  RH WIND       PRES   REMARKS
STAMPEDE PASS  FOG       36  36 100 VRB3      29.92S VSB 1
TROUTDALE, OR  MOCLDY    51  45  79 SW5       29.99R
THE DALLES, OR CLOUDY    54  43  66 NW7       29.95S
$$

WAZ026-027-041>044-520-521-230900-
EAST SLOPES

CITY           SKY/WX    TMP DP  RH WIND       PRES   REMARKS
OMAK           PTCLDY    47  34  60 W8        29.86S
WENATCHEE      MOCLDY    48  38  68 NW6       29.90R
ELLENSBURG     CLOUDY    46  37  71 N12       29.91R
YAKIMA         MOCLDY    51  38  60 CALM      29.92S
SUNNYSIDE ARPT PTSUNNY   41  38  88 NE3       29.91S
$$

WAZ028-034-035-230900-
COLUMBIA BASIN

CITY           SKY/WX    TMP DP  RH WIND       PRES   REMARKS
EPHRATA        MOCLDY    51  34  52 NW13      29.86S
MOSES LAKE     PTCLDY    49  38  65 W8        29.88R
PASCO          CLOUDY    55  37  50 W15       29.90F
HERMISTON, OR  CLOUDY    54  45  71 SW10      29.91F
$$

WAZ036>038-230900-
NORTHEAST WASHINGTON

CITY           SKY/WX    TMP DP  RH WIND       PRES   REMARKS
SPOKANE GEIGER CLOUDY    48  39  71 S8        29.87F
SPOKANE FELTS  CLOUDY    46  41  82 NE5       29.88F
FAIRCHILD AFB  CLOUDY    48  40  73 SW10      29.86F
COEURDALENE,ID CLOUDY    45  39  79 S6        29.89S
DEER PARK      CLOUDY    41  36  82 CALM      29.88S
$$

WAZ029>033-230900-
SOUTHEAST WASHINGTON

CITY           SKY/WX    TMP DP  RH WIND       PRES   REMARKS
PULLMAN        CLOUDY    47  42  83 CALM      29.91F
LEWISTON, ID   LGT RAIN  50  47  89 SE6       29.90F
WALLA WALLA    CLOUDY    53  43  68 S8        29.91S
PENDLETON, OR  CLOUDY    51  42  71 W9        29.91S
$$



USA.gov is the U.S. government's official web portal to all federal, state and local government web resources and services.